User: anonymous   Login
Location: Owatonna
(44.0840°N, 93.2260°W)
Time: 20:04:29
(UTC-05:00)
Language:

Cosmos 1500 Rocket - Orbit

View from above orbital plane
View from above orbital plane
View from above satellite
View from above satellite

Ground track
Ground track

The orbit data is extracted from the following two-line orbital elements,

1 14373U 83099B   15088.06395332  .00000680  00000-0  79765-4 0  9992
2 14373 082.5382 282.4347 0021003 026.8943 089.6265 14.83387714700612
Epoch (UTC): 29 March 2015 01:32:05
Eccentricity: 0.0021003
inclination: 82.5382°
perigee height: 604 km
apogee height: 633 km
right ascension of ascending node: 282.4347°
argument of perigee: 26.8943°
revolutions per day: 14.83387714
mean anomaly at epoch: 89.6265°
orbit number at epoch: 70061

The dashed part of the orbit path shows where the satellite is in the earth's shadow,  

DLR